Regional Weather Roundup
Issued by NWS

Home | Current Version | Previous Version | Graphics & Text | Print | Product List | Glossary On
Versions: 1 2 3 4 5 6 7 8 9 10 11 12 13 14 15 16 17 18 19 20 21 22 23 24 25 26 27 28 29 30 31 32 33 34 35 36 37 38 39 40 41 42 43 44 45 46 47 48 49 50
000
ASUS43 KMPX 310701
RWRMN
WEATHER ROUNDUP FOR MINNESOTA
NATIONAL WEATHER SERVICE TWIN CITIES/CHANHASSEN MN
100 AM CST SAT JAN 31 2015


NOTE: "FAIR" INDICATES FEW OR NO CLOUDS BELOW 12,000 FEET WITH NO
SIGNIFICANT WEATHER AND/OR OBSTRUCTIONS TO VISIBILITY. N/A MEANS
CURRENT SKY AND/OR WEATHER CONDITIONS ARE NOT AVAILABLE.

MNZ060>063-068>070-310800-
   Twin Cities Metro

CITY           SKY/WX    TMP DP  RH WIND       PRES   REMARKS
TWIN CITIES    PTCLDY    21  17  84 SE3       30.13F
ST PAUL        CLOUDY    23  19  85 S5        30.15F WCI  17
CRYSTAL        CLEAR     22  18  85 CALM      30.11F
BLAINE         CLOUDY    28  25  86 S5        30.11F WCI  23
LAKEVILLE      CLEAR     25  21  86 SW3       30.12F
EDEN PRAIRIE   CLEAR     23  19  85 SW5       30.11F WCI  17
SOUTH ST PAUL  PTCLDY    20  17  88 CALM      30.13F
LAKE ELMO      CLOUDY    27  21  80 S7        30.14F WCI  19
$$
MNZ001>005-007-008-013>017-022>024-027-028-310800-
   Northwest Minnesota

CITY           SKY/WX    TMP DP  RH WIND       PRES   REMARKS
BEMIDJI        CLOUDY    23  20  87 NW14      30.10S WCI  11
HALLOCK        FLURRIES  16   9  73 N22G29    30.25S WCI  -2
ROSEAU         CLOUDY    16  10  79 N17       30.20R WCI   0
WARROAD        FLURRIES  16  10  79 NW12      30.19S WCI   3
THIEF RVR FALL CLOUDY    19  18  93 N15       30.18S WCI   5
CROOKSTON      CLOUDY    18  16  93 N21G29    30.23R WCI   1
FOSSTON        CLOUDY    19  16  86 NW14      30.15S WCI   6
DETROIT LAKES  CLOUDY    23  23 100 N15G21    30.13S WCI  10
MOORHEAD       CLOUDY    23  21  93 N16       30.19R WCI  10
PARK RAPIDS    CLOUDY    22  19  89 NW8       30.08S WCI  12
MAHNOMEN       PTSUNNY   20  18  89 NW18      30.14S WCI   5
$$
MNZ006-009>011-018-025>026-310800-
   North Central Minnesota

CITY           SKY/WX    TMP DP  RH WIND       PRES   REMARKS
BAUDETTE       CLOUDY    15  11  83 NW17      30.14R WCI  -1
FLAG ISLAND    MIX PCPN  12   9  85 NW17      30.17S WCI  -5
INTL FALLS     CLOUDY    16  11  80 NW10      30.11R WCI   4
WASKISH        CLOUDY    19  16  86 NW9       30.13S WCI   9
BIG FORK       CLOUDY    21  12  68 W3        30.09S
LONGVILLE      CLOUDY    23  19  86 CALM      30.08F
GRAND RAPIDS   CLOUDY    19  12  73 CALM      30.07S
CRANE LAKE     CLOUDY    16  10  79 CALM      30.11F
ORR            CLOUDY    16   9  73 CALM      30.06F
COOK           CLOUDY    18  10  73 CALM      30.08F
WALKER         CLOUDY    24  20  85 NW3       30.08F
$$
MNZ012-019>021-037-310800-
   Northeast Minnesota

CITY           SKY/WX    TMP DP  RH WIND       PRES   REMARKS
DULUTH         CLOUDY    19  10  68 W7        30.06F WCI  10
ELY            CLOUDY    14  10  85 CALM      30.06F
HIBBING        CLOUDY    18   8  65 CALM      30.07F
EVELETH        CLOUDY    18  10  73 CALM      30.08F
DULUTH HARBOR  CLOUDY    19  10  68 CALM      30.14F
TWO HARBORS    CLOUDY    19  10  68 CALM      30.07F
SILVER BAY     CLOUDY    18  10  73 CALM      30.07F
GRAND MARAIS     N/A     17  11  77 W5        30.12F WCI  10
G MARAIS ARPRT CLOUDY    10   5  79 W5        30.02F WCI   2
$$
MNZ029>031-032-039>041-046>048-054>057-064-310800-
   West Central Minnesota

CITY           SKY/WX    TMP DP  RH WIND       PRES   REMARKS
FERGUS FALLS   CLOUDY    25  21  86 N12G17    30.16F WCI  14
WHEATON        MOCLDY    23  21  93 NW9       30.17F WCI  13
MORRIS         CLEAR     25  21  86 NW14      30.12S WCI  13
ALEXANDRIA     CLEAR     23  21  92 NW7       30.10S WCI  15
ELBOW LAKE     FAIR      22  20  93 NW7       30.12S WCI  13
WADENA         CLEAR     18  18 100 NW5       30.09S WCI  11
GLENWOOD       FAIR      21  21 100 W7        30.11R FOG     WCI  13
APPLETON       CLEAR     27  25  93 N12       30.14R WCI  16
BENSON         CLEAR     23  21  93 N7        30.12S WCI  15
ORTONVILLE     CLEAR     27  23  86 N12       30.15R WCI  16
MADISON        CLEAR     32  30  93 NW9       30.13S WCI  24
WILLMAR        FAIR      23  21  93 CALM      30.12S FOG
$$
MNZ033>034-036-042>043-049>051-058-059-310800-
   Central Minnesota

CITY           SKY/WX    TMP DP  RH WIND       PRES   REMARKS
ST CLOUD       CLEAR     18  16  92 CALM      30.11R
SAUK CENTRE    FAIR      17  16  95 CALM      30.10R FOG
PAYNESVILLE    CLEAR     16  16 100 SW3       30.11S FOG
AITKIN         CLOUDY    27  19  74 CALM      30.08S
PINE RIVER     CLOUDY    25  19  80 CALM      30.11F
BRAINERD       CLOUDY    24  19  81 CALM      30.09F
STAPLES        MOCLDY    14  12  92 CALM      30.09F
LONG PRAIRIE   FAIR      23  21  93 W7        30.10S WCI  15
LITTLE FALLS   CLEAR     18  14  86 CALM      30.11R
LITCHFIELD     CLEAR     25  25 100 SW5       30.11S WCI  19
BUFFALO        CLEAR     22  19  91 CALM      30.12F
MAPLE LAKE     CLEAR     20  20  96 CALM      30.11S
$$
MNZ037-044-045-052-053-310800-
   East Central Minnesota

CITY           SKY/WX    TMP DP  RH WIND       PRES   REMARKS
PRINCETON      CLOUDY    27  23  86 CALM      30.11S
MORA           CLOUDY    23  18  80 E3        30.13F
CAMBRIDGE      CLOUDY    28  19  69 CALM      30.10S
RUSH CITY      CLOUDY    24  19  81 CALM      30.13S
MOOSE LAKE     CLOUDY    21  14  73 CALM      30.08F
HINCKLEY       CLOUDY    23  18  80 CALM      30.11F
CLOQUET        CLOUDY    19  12  73 CALM      30.08F
MCGREGOR       CLOUDY    23  19  86 CALM      30.08F
$$
MNZ071>073-080-081-089-090-097-098-310800-
   Southwest Minnesota

CITY           SKY/WX    TMP DP  RH WIND       PRES   REMARKS
MONTEVIDEO     CLEAR     28  27  93 NW6       30.13S WCI  22
GRANITE FALLS  CLEAR     24  23  96 SW7       30.14S WCI  16
CANBY          CLEAR     30  27  88 NW8       30.14S WCI  22
MARSHALL       CLEAR     27  21  80 W8        30.14R WCI  18
REDWOOD FALLS  CLEAR     24  22  91 SW3       30.12S
OLIVIA         CLEAR     21  19  93 SW6       30.11F WCI  14
PIPESTONE      CLEAR     28  27  93 CALM      30.10S
WINDOM         CLEAR     28  25  86 SW8       30.12F WCI  20
WORTHINGTON    CLEAR     28  23  80 SW12      30.12S WCI  18
JACKSON        CLEAR     30  25  80 SW13      30.12F WCI  20
TRACY          CLEAR     30  27  88 W5        30.11S WCI  25
SLAYTON        CLEAR     28  26  90 CALM      30.11S
$$
MNZ065>067-074>077-082>085-091>093-310800-
   South Central Minnesota

CITY           SKY/WX    TMP DP  RH WIND       PRES   REMARKS
MANKATO        CLEAR     27  19  74 S7        30.13F WCI  19
NEW ULM        CLEAR     23  21  93 CALM      30.13S
ST JAMES       CLEAR     28  25  86 S5        30.14F WCI  23
FAIRMONT       CLEAR     27  21  80 SW12      30.12F WCI  16
GLENCOE        CLEAR     25  24  94 S6        30.11F WCI  18
FARIBAULT      CLEAR     25  21  86 S6        30.14F WCI  18
OWATONNA       CLEAR     25  19  80 S9        30.13F WCI  15
WASECA         CLEAR     27  21  80 SW7       30.15F WCI  19
ALBERT LEA     CLEAR     27  21  80 SW8       30.14F WCI  18
$$
MNZ078>079-086>088-094>096-310800-
   Southeast Minnesota

CITY           SKY/WX    TMP DP  RH WIND       PRES   REMARKS
ROCHESTER      CLEAR     22  15  75 SW9       30.14F WCI  12
RED WING       MOCLDY    18  14  86 CALM      30.15F
STANTON        CLEAR     26  20  79 SW6       30.12F WCI  19
DODGE CENTER   CLEAR     25  19  80 SW12      30.13F WCI  14
WINONA         CLEAR     28  16  59 CALM      30.19F
AUSTIN         CLEAR     21  18  86 S8        30.15F WCI  12
PRESTON        CLEAR     22  15  72 SW15      30.16F WCI   9
$$
ABBREVIATIONS USED IN REMARKS
   TC - TEMPERATURES IN CELSIUS
  WCI - WIND CHILL INDEX
   HX - HEAT INDEX
  VSB - VISIBILITY
$$



USA.gov is the U.S. government's official web portal to all federal, state and local government web resources and services.